Time,TemperatureF,DewpointF,PressureIn,WindDirection,WindDirectionDegrees,WindSpeedMPH,WindSpeedGustMPH,Humidity,HourlyPrecipIn,Conditions,Clouds,dailyrainin,SoftwareType,DateUTC
2013-06-14 00:03:00,66.2,23.9,27.19,North,0,0.0,0.0,20,0.00,CLR,OVC,0.00,WeatherDisplay:10.37,2013-06-14 05:03:00,
2013-06-14 00:08:00,66.4,24.1,27.19,North,0,0.0,0.0,20,0.00,CLR,OVC,0.00,WeatherDisplay:10.37,2013-06-14 05:08:00,
2013-06-14 00:13:00,66.4,24.1,27.19,North,0,0.0,0.0,20,0.00,CLR,OVC,0.00,WeatherDisplay:10.37,2013-06-14 05:13:00,
2013-06-14 00:18:00,66.4,24.1,27.19,North,0,0.0,0.0,20,0.00,CLR,OVC,0.00,WeatherDisplay:10.37,2013-06-14 05:18:00,
2013-06-14 00:23:00,66.2,26.2,27.19,North,0,0.0,0.0,22,0.00,CLR,OVC,0.00,WeatherDisplay:10.37,2013-06-14 05:23:00,
2013-06-14 00:28:00,66.2,26.2,27.19,North,0,0.0,0.0,22,0.00,CLR,OVC,0.00,WeatherDisplay:10.37,2013-06-14 05:28:00,
2013-06-14 00:33:00,66.2,23.9,27.19,North,0,0.0,0.0,20,0.00,CLR,OVC,0.00,WeatherDisplay:10.37,2013-06-14 05:33:00,
2013-06-14 00:38:00,66.4,24.1,27.19,North,0,0.0,0.0,20,0.00,CLR,OVC,0.00,WeatherDisplay:10.37,2013-06-14 05:38:00,
2013-06-14 00:43:00,66.6,24.2,27.19,North,0,0.0,0.0,20,0.00,CLR,OVC,0.00,WeatherDisplay:10.37,2013-06-14 05:43:00,
2013-06-14 00:48:00,66.6,24.2,27.19,North,0,0.0,0.0,20,0.00,CLR,OVC,0.00,WeatherDisplay:10.37,2013-06-14 05:48:00,
2013-06-14 00:53:00,66.6,24.2,27.19,North,0,0.0,0.0,20,0.00,CLR,OVC,0.00,WeatherDisplay:10.37,2013-06-14 05:53:00,
2013-06-14 00:58:00,66.7,24.3,27.19,North,0,0.0,0.0,20,0.00,CLR,OVC,0.00,WeatherDisplay:10.37,2013-06-14 05:58:00,
2013-06-14 01:03:00,66.7,26.6,27.19,North,0,0.0,0.0,22,0.00,CLR,OVC,0.00,WeatherDisplay:10.37,2013-06-14 06:03:00,
2013-06-14 01:08:00,66.7,26.6,27.19,North,0,0.0,0.0,22,0.00,CLR,OVC,0.00,WeatherDisplay:10.37,2013-06-14 06:08:00,
2013-06-14 01:13:00,66.7,26.6,27.19,North,0,0.0,0.0,22,0.00,CLR,OVC,0.00,WeatherDisplay:10.37,2013-06-14 06:13:00,
2013-06-14 01:18:00,66.7,27.7,27.19,North,0,0.0,0.0,23,0.00,CLR,OVC,0.00,WeatherDisplay:10.37,2013-06-14 06:18:00,
2013-06-14 01:23:00,66.6,27.6,27.19,North,0,0.0,0.0,23,0.00,CLR,OVC,0.00,WeatherDisplay:10.37,2013-06-14 06:23:00,
2013-06-14 01:28:00,66.6,27.6,27.19,North,0,0.0,0.0,23,0.00,CLR,OVC,0.00,WeatherDisplay:10.37,2013-06-14 06:28:00,
2013-06-14 01:33:00,66.4,27.4,27.19,North,0,0.0,0.0,23,0.00,CLR,OVC,0.00,WeatherDisplay:10.37,2013-06-14 06:33:00,
2013-06-14 01:38:00,66.2,28.3,27.19,North,0,0.0,0.0,24,0.00,CLR,OVC,0.00,WeatherDisplay:10.37,2013-06-14 06:38:00,
2013-06-14 01:43:00,66.0,29.2,27.19,North,0,0.0,0.0,25,0.00,CLR,OVC,0.00,WeatherDisplay:10.37,2013-06-14 06:43:00,
2013-06-14 01:48:00,65.8,29.0,27.19,North,0,0.0,0.0,25,0.00,CLR,OVC,0.00,WeatherDisplay:10.37,2013-06-14 06:48:00,
2013-06-14 01:53:00,65.7,28.8,27.19,North,0,0.0,0.0,25,0.00,CLR,OVC,0.00,WeatherDisplay:10.37,2013-06-14 06:53:00,
2013-06-14 01:58:00,65.5,29.7,27.19,North,0,0.0,0.0,26,0.00,CLR,OVC,0.00,WeatherDisplay:10.37,2013-06-14 06:58:00,
2013-06-14 02:03:00,65.5,30.6,27.19,North,0,0.0,0.0,27,0.00,CLR,OVC,0.00,WeatherDisplay:10.37,2013-06-14 07:03:00,
2013-06-14 02:08:00,65.3,30.4,27.19,North,0,0.0,0.0,27,0.00,CLR,OVC,0.00,WeatherDisplay:10.37,2013-06-14 07:08:00,
2013-06-14 02:13:00,65.1,30.3,27.19,North,0,0.0,0.0,27,0.00,CLR,OVC,0.00,WeatherDisplay:10.37,2013-06-14 07:13:00,
2013-06-14 02:18:00,64.9,31.0,27.19,North,0,0.0,0.0,28,0.00,CLR,OVC,0.00,WeatherDisplay:10.37,2013-06-14 07:18:00,
2013-06-14 02:23:00,64.8,30.9,27.19,North,0,0.0,0.0,28,0.00,CLR,OVC,0.00,WeatherDisplay:10.37,2013-06-14 07:23:00,
2013-06-14 02:28:00,64.8,31.7,27.19,North,0,0.0,0.0,29,0.00,CLR,OVC,0.00,WeatherDisplay:10.37,2013-06-14 07:28:00,
2013-06-14 02:33:00,64.6,31.6,27.19,North,0,0.0,0.0,29,0.00,CLR,OVC,0.00,WeatherDisplay:10.37,2013-06-14 07:33:00,
2013-06-14 02:38:00,64.4,32.3,27.19,North,0,0.0,0.0,30,0.00,CLR,OVC,0.00,WeatherDisplay:10.37,2013-06-14 07:38:00,
2013-06-14 02:43:00,64.4,32.3,27.19,North,0,0.0,0.0,30,0.00,CLR,OVC,0.00,WeatherDisplay:10.37,2013-06-14 07:43:00,
2013-06-14 02:48:00,64.0,32.8,27.19,North,0,0.0,0.0,31,0.00,CLR,OVC,0.00,WeatherDisplay:10.37,2013-06-14 07:48:00,
2013-06-14 02:53:00,63.9,33.4,27.19,North,0,0.0,0.0,32,0.00,CLR,OVC,0.00,WeatherDisplay:10.37,2013-06-14 07:53:00,
2013-06-14 02:58:00,63.7,34.0,27.19,North,0,0.0,0.0,33,0.00,CLR,OVC,0.00,WeatherDisplay:10.37,2013-06-14 07:58:00,
2013-06-14 03:03:00,63.5,33.9,27.19,North,0,0.0,0.0,33,0.00,CLR,OVC,0.00,WeatherDisplay:10.37,2013-06-14 08:03:00,
2013-06-14 03:08:00,63.5,33.9,27.19,North,0,0.0,0.0,33,0.00,CLR,OVC,0.00,WeatherDisplay:10.37,2013-06-14 08:08:00,
2013-06-14 03:13:00,63.3,34.4,27.19,North,0,0.0,0.0,34,0.00,CLR,OVC,0.00,WeatherDisplay:10.37,2013-06-14 08:13:00,
2013-06-14 03:18:00,63.1,34.3,27.19,North,0,0.0,0.0,34,0.00,CLR,OVC,0.00,WeatherDisplay:10.37,2013-06-14 08:18:00,
2013-06-14 03:23:00,63.0,34.1,27.19,North,0,0.0,0.0,34,0.00,CLR,OVC,0.00,WeatherDisplay:10.37,2013-06-14 08:23:00,
2013-06-14 03:28:00,62.8,34.0,27.19,North,0,0.0,0.0,34,0.00,CLR,OVC,0.00,WeatherDisplay:10.37,2013-06-14 08:28:00,
2013-06-14 03:33:00,62.6,33.8,27.19,North,0,0.0,0.0,34,0.00,CLR,OVC,0.00,WeatherDisplay:10.37,2013-06-14 08:33:00,
2013-06-14 03:38:00,62.6,33.8,27.19,North,0,0.0,0.0,34,0.00,CLR,OVC,0.00,WeatherDisplay:10.37,2013-06-14 08:38:00,
2013-06-14 03:43:00,62.4,34.4,27.19,North,0,0.0,0.0,35,0.00,CLR,OVC,0.00,WeatherDisplay:10.37,2013-06-14 08:43:00,
2013-06-14 03:48:00,62.2,33.5,27.19,North,0,0.0,0.0,34,0.00,CLR,OVC,0.00,WeatherDisplay:10.37,2013-06-14 08:48:00,
2013-06-14 03:53:00,62.1,33.3,27.19,North,0,0.0,0.0,34,0.00,CLR,OVC,0.00,WeatherDisplay:10.37,2013-06-14 08:53:00,
2013-06-14 03:58:00,62.1,33.3,27.19,North,0,0.0,0.0,34,0.00,CLR,OVC,0.00,WeatherDisplay:10.37,2013-06-14 08:58:00,
2013-06-14 04:03:00,61.9,33.2,27.19,North,0,0.0,0.0,34,0.00,CLR,OVC,0.00,WeatherDisplay:10.37,2013-06-14 09:03:00,
2013-06-14 04:08:00,61.9,31.7,27.19,North,0,0.0,0.0,32,0.00,CLR,OVC,0.00,WeatherDisplay:10.37,2013-06-14 09:08:00,
2013-06-14 04:13:00,61.7,30.7,27.19,North,0,0.0,0.0,31,0.00,CLR,OVC,0.00,WeatherDisplay:10.37,2013-06-14 09:13:00,
2013-06-14 04:18:00,61.7,30.7,27.19,North,0,0.0,0.0,31,0.00,CLR,OVC,0.00,WeatherDisplay:10.37,2013-06-14 09:18:00,
2013-06-14 04:23:00,61.7,29.9,27.19,North,0,0.0,0.0,30,0.00,CLR,OVC,0.00,WeatherDisplay:10.37,2013-06-14 09:23:00,
2013-06-14 04:28:00,61.5,29.8,27.19,North,0,0.0,0.0,30,0.00,CLR,OVC,0.00,WeatherDisplay:10.37,2013-06-14 09:28:00,
2013-06-14 04:33:00,61.3,28.8,27.19,North,0,0.0,0.0,29,0.00,CLR,OVC,0.00,WeatherDisplay:10.37,2013-06-14 09:33:00,
2013-06-14 04:38:00,61.2,28.6,27.19,North,0,0.0,0.0,29,0.00,CLR,OVC,0.00,WeatherDisplay:10.37,2013-06-14 09:38:00,
2013-06-14 04:43:00,61.2,28.6,27.19,North,0,0.0,0.0,29,0.00,CLR,OVC,0.00,WeatherDisplay:10.37,2013-06-14 09:43:00,
2013-06-14 04:48:00,61.0,28.5,27.19,North,0,0.0,0.0,29,0.00,CLR,OVC,0.00,WeatherDisplay:10.37,2013-06-14 09:48:00,
2013-06-14 04:53:00,61.0,28.5,27.19,North,0,0.0,0.0,29,0.00,CLR,OVC,0.00,WeatherDisplay:10.37,2013-06-14 09:53:00,
2013-06-14 04:58:00,60.8,28.3,27.19,North,0,0.0,0.0,29,0.00,CLR,OVC,0.00,WeatherDisplay:10.37,2013-06-14 09:58:00,
2013-06-14 05:03:00,60.6,28.2,27.19,North,0,0.0,0.0,29,0.00,CLR,OVC,0.00,WeatherDisplay:10.37,2013-06-14 10:03:00,
2013-06-14 05:08:00,60.4,28.8,27.19,North,0,0.0,0.0,30,0.00,CLR,OVC,0.00,WeatherDisplay:10.37,2013-06-14 10:08:00,
2013-06-14 05:13:00,60.3,28.7,27.19,North,0,0.0,0.0,30,0.00,CLR,OVC,0.00,WeatherDisplay:10.37,2013-06-14 10:13:00,
2013-06-14 05:18:00,60.1,28.5,27.19,North,0,0.0,0.0,30,0.00,CLR,OVC,0.00,WeatherDisplay:10.37,2013-06-14 10:18:00,
2013-06-14 05:23:00,60.1,28.5,27.19,North,0,0.0,0.0,30,0.00,CLR,OVC,0.00,WeatherDisplay:10.37,2013-06-14 10:23:00,
2013-06-14 05:28:00,59.7,29.0,27.19,North,0,0.0,0.0,31,0.00,CLR,OVC,0.00,WeatherDisplay:10.37,2013-06-14 10:28:00,
2013-06-14 05:33:00,59.7,29.0,27.19,North,0,0.0,0.0,31,0.00,CLR,OVC,0.00,WeatherDisplay:10.37,2013-06-14 10:33:00,
2013-06-14 05:38:00,59.5,29.6,27.19,North,0,0.0,0.0,32,0.00,CLR,OVC,0.00,WeatherDisplay:10.37,2013-06-14 10:38:00,
2013-06-14 05:43:00,59.4,29.5,27.19,North,0,0.0,0.0,32,0.00,CLR,OVC,0.00,WeatherDisplay:10.37,2013-06-14 10:43:00,
2013-06-14 05:48:00,59.2,30.1,27.19,North,0,0.0,0.0,33,0.00,CLR,OVC,0.00,WeatherDisplay:10.37,2013-06-14 10:48:00,
2013-06-14 05:53:00,59.2,30.8,27.19,North,0,0.0,0.0,34,0.00,CLR,OVC,0.00,WeatherDisplay:10.37,2013-06-14 10:53:00,
2013-06-14 05:58:00,59.0,30.6,27.19,North,0,0.0,0.0,34,0.00,CLR,OVC,0.00,WeatherDisplay:10.37,2013-06-14 10:58:00,
2013-06-14 06:03:00,59.0,30.6,27.19,North,0,0.0,0.0,34,0.00,CLR,OVC,0.00,WeatherDisplay:10.37,2013-06-14 11:03:00,
2013-06-14 06:08:00,59.2,30.8,27.19,North,0,0.0,0.0,34,0.00,CLR,OVC,0.00,WeatherDisplay:10.37,2013-06-14 11:08:00,
2013-06-14 06:13:00,59.2,31.5,27.19,North,0,0.0,0.0,35,0.00,CLR,OVC,0.00,WeatherDisplay:10.37,2013-06-14 11:13:00,
2013-06-14 06:18:00,59.2,31.5,27.19,North,0,0.0,0.0,35,0.00,CLR,OVC,0.00,WeatherDisplay:10.37,2013-06-14 11:18:00,
2013-06-14 06:23:00,59.4,31.7,27.19,North,0,0.0,0.0,35,0.00,CLR,OVC,0.00,WeatherDisplay:10.37,2013-06-14 11:23:00,
2013-06-14 06:28:00,59.5,31.8,27.19,North,0,0.0,0.0,35,0.00,CLR,OVC,0.00,WeatherDisplay:10.37,2013-06-14 11:28:00,
2013-06-14 06:33:00,59.7,32.0,27.19,North,0,0.0,0.0,35,0.00,CLR,OVC,0.00,WeatherDisplay:10.37,2013-06-14 11:33:00,
2013-06-14 06:38:00,60.1,32.3,27.19,North,0,0.0,0.0,35,0.00,CLR,OVC,0.00,WeatherDisplay:10.37,2013-06-14 11:38:00,
2013-06-14 06:43:00,60.3,32.5,27.19,North,0,0.0,0.0,35,0.00,CLR,OVC,0.00,WeatherDisplay:10.37,2013-06-14 11:43:00,
2013-06-14 06:48:00,60.4,32.6,27.19,North,0,0.0,0.0,35,0.00,CLR,OVC,0.00,WeatherDisplay:10.37,2013-06-14 11:48:00,
2013-06-14 06:53:00,60.6,32.8,27.19,North,0,0.0,0.0,35,0.00,CLR,OVC,0.00,WeatherDisplay:10.37,2013-06-14 11:53:00,
2013-06-14 06:58:00,60.6,32.8,27.19,North,0,0.0,0.0,35,0.00,CLR,OVC,0.00,WeatherDisplay:10.37,2013-06-14 11:58:00,
2013-06-14 07:03:00,60.8,32.2,27.19,North,0,0.0,0.0,34,0.00,CLR,OVC,0.00,WeatherDisplay:10.37,2013-06-14 12:03:00,
2013-06-14 07:08:00,61.0,32.4,27.19,North,0,0.0,0.0,34,0.00,CLR,OVC,0.00,WeatherDisplay:10.37,2013-06-14 12:08:00,
2013-06-14 07:13:00,61.3,32.7,27.19,North,0,0.0,0.0,34,0.00,CLR,OVC,0.00,WeatherDisplay:10.37,2013-06-14 12:13:00,
2013-06-14 07:18:00,61.5,32.9,27.19,North,0,0.0,0.0,34,0.00,CLR,OVC,0.00,WeatherDisplay:10.37,2013-06-14 12:18:00,
2013-06-14 07:23:00,61.7,33.0,27.19,North,0,0.0,0.0,34,0.00,CLR,OVC,0.00,WeatherDisplay:10.37,2013-06-14 12:23:00,
2013-06-14 07:28:00,61.9,33.2,27.19,North,0,0.0,0.0,34,0.00,CLR,OVC,0.00,WeatherDisplay:10.37,2013-06-14 12:28:00,
2013-06-14 07:33:00,62.2,32.8,27.19,North,0,0.0,0.0,33,0.00,CLR,OVC,0.00,WeatherDisplay:10.37,2013-06-14 12:33:00,
2013-06-14 07:38:00,62.6,31.5,27.19,North,0,0.0,0.0,31,0.00,CLR,OVC,0.00,WeatherDisplay:10.37,2013-06-14 12:38:00,
2013-06-14 07:43:00,63.0,30.2,27.19,North,0,0.0,0.0,29,0.00,CLR,OVC,0.00,WeatherDisplay:10.37,2013-06-14 12:43:00,
2013-06-14 07:48:00,63.5,29.8,27.19,North,0,0.0,0.0,28,0.00,CLR,OVC,0.00,WeatherDisplay:10.37,2013-06-14 12:48:00,
2013-06-14 07:53:00,63.7,29.0,27.19,North,0,0.0,0.0,27,0.00,CLR,OVC,0.00,WeatherDisplay:10.37,2013-06-14 12:53:00,
2013-06-14 07:58:00,63.9,28.3,27.19,North,0,0.0,0.0,26,0.00,CLR,OVC,0.00,WeatherDisplay:10.37,2013-06-14 12:58:00,
2013-06-14 08:03:00,64.0,27.5,27.19,North,0,0.0,0.0,25,0.00,CLR,OVC,0.00,WeatherDisplay:10.37,2013-06-14 13:03:00,
2013-06-14 08:08:00,64.0,27.5,27.19,North,0,0.0,0.0,25,0.00,CLR,OVC,0.00,WeatherDisplay:10.37,2013-06-14 13:08:00,
2013-06-14 08:13:00,64.2,27.6,27.19,North,0,0.0,0.0,25,0.00,CLR,OVC,0.00,WeatherDisplay:10.37,2013-06-14 13:13:00,
2013-06-14 08:18:00,64.2,26.6,27.19,North,0,0.0,0.0,24,0.00,CLR,OVC,0.00,WeatherDisplay:10.37,2013-06-14 13:18:00,
2013-06-14 08:23:00,64.2,26.6,27.19,North,0,0.0,0.0,24,0.00,CLR,OVC,0.00,WeatherDisplay:10.37,2013-06-14 13:23:00,
2013-06-14 08:28:00,64.2,26.6,27.19,North,0,0.0,0.0,24,0.00,CLR,OVC,0.00,WeatherDisplay:10.37,2013-06-14 13:28:00,
2013-06-14 08:33:00,64.4,26.8,27.19,North,0,0.0,0.0,24,0.00,CLR,OVC,0.00,WeatherDisplay:10.37,2013-06-14 13:33:00,
2013-06-14 08:38:00,64.6,26.9,27.19,North,0,0.0,0.0,24,0.00,CLR,OVC,0.00,WeatherDisplay:10.37,2013-06-14 13:38:00,
2013-06-14 08:43:00,64.8,27.1,27.19,North,0,0.0,0.0,24,0.00,CLR,OVC,0.00,WeatherDisplay:10.37,2013-06-14 13:43:00,
2013-06-14 08:48:00,64.8,27.1,27.19,North,0,0.0,0.0,24,0.00,CLR,OVC,0.00,WeatherDisplay:10.37,2013-06-14 13:48:00,
2013-06-14 08:53:00,65.1,27.4,27.19,North,0,0.0,0.0,24,0.00,CLR,OVC,0.00,WeatherDisplay:10.37,2013-06-14 13:53:00,
2013-06-14 08:58:00,65.5,27.7,27.19,North,0,0.0,0.0,24,0.00,CLR,OVC,0.00,WeatherDisplay:10.37,2013-06-14 13:58:00,
2013-06-14 09:03:00,65.8,27.0,27.19,North,0,0.0,0.0,23,0.00,CLR,OVC,0.00,WeatherDisplay:10.37,2013-06-14 14:03:00,
2013-06-14 09:08:00,66.4,24.1,27.19,North,0,0.0,0.0,20,0.00,CLR,OVC,0.00,WeatherDisplay:10.37,2013-06-14 14:08:00,
2013-06-14 09:13:00,66.6,20.3,27.19,North,0,0.0,0.0,17,0.00,CLR,OVC,0.00,WeatherDisplay:10.37,2013-06-14 14:13:00,
2013-06-14 09:18:00,66.7,20.5,27.19,North,0,0.0,0.0,17,0.00,CLR,OVC,0.00,WeatherDisplay:10.37,2013-06-14 14:18:00,
2013-06-14 09:23:00,67.3,20.9,27.19,North,0,0.0,0.0,17,0.00,CLR,OVC,0.00,WeatherDisplay:10.37,2013-06-14 14:23:00,
2013-06-14 09:28:00,67.6,21.2,27.19,North,0,0.0,0.0,17,0.00,CLR,OVC,0.00,WeatherDisplay:10.37,2013-06-14 14:28:00,
2013-06-14 09:33:00,67.8,18.4,27.19,North,0,0.0,0.0,15,0.00,CLR,OVC,0.00,WeatherDisplay:10.37,2013-06-14 14:33:00,
2013-06-14 09:38:00,67.8,18.4,27.19,North,0,0.0,0.0,15,0.00,CLR,OVC,0.00,WeatherDisplay:10.37,2013-06-14 14:38:00,
2013-06-14 09:43:00,67.8,18.4,27.19,North,0,0.0,0.0,15,0.00,CLR,OVC,0.00,WeatherDisplay:10.37,2013-06-14 14:43:00,
2013-06-14 09:48:00,67.8,18.4,27.19,North,0,0.0,0.0,15,0.00,CLR,OVC,0.00,WeatherDisplay:10.37,2013-06-14 14:48:00,
2013-06-14 09:53:00,67.6,18.3,27.19,North,0,0.0,0.0,15,0.00,CLR,OVC,0.00,WeatherDisplay:10.37,2013-06-14 14:53:00,
2013-06-14 09:58:00,67.8,18.4,27.19,North,0,0.0,0.0,15,0.00,CLR,OVC,0.00,WeatherDisplay:10.37,2013-06-14 14:58:00,
2013-06-14 10:03:00,68.0,18.6,27.19,North,0,0.0,0.0,15,0.00,CLR,OVC,0.00,WeatherDisplay:10.37,2013-06-14 15:03:00,
2013-06-14 10:08:00,68.4,18.9,27.19,North,0,0.0,0.0,15,0.00,CLR,OVC,0.00,WeatherDisplay:10.37,2013-06-14 15:08:00,
2013-06-14 10:13:00,68.9,19.3,27.19,North,0,0.0,0.0,15,0.00,CLR,OVC,0.00,WeatherDisplay:10.37,2013-06-14 15:13:00,
2013-06-14 10:18:00,69.4,19.7,27.19,North,0,0.0,0.0,15,0.00,CLR,OVC,0.00,WeatherDisplay:10.37,2013-06-14 15:18:00,
2013-06-14 10:23:00,70.0,15.0,27.19,North,0,0.0,0.0,12,0.00,CLR,OVC,0.00,WeatherDisplay:10.37,2013-06-14 15:23:00,
2013-06-14 10:28:00,70.3,15.3,27.19,North,0,0.0,0.0,12,0.00,CLR,OVC,0.00,WeatherDisplay:10.37,2013-06-14 15:28:00,
2013-06-14 10:33:00,70.3,15.3,27.19,North,0,0.0,0.0,12,0.00,CLR,OVC,0.00,WeatherDisplay:10.37,2013-06-14 15:33:00,
2013-06-14 10:38:00,70.7,15.5,27.19,North,0,0.0,0.0,12,0.00,CLR,OVC,0.00,WeatherDisplay:10.37,2013-06-14 15:38:00,
2013-06-14 10:43:00,71.1,15.8,27.19,North,0,0.0,0.0,12,0.00,CLR,OVC,0.00,WeatherDisplay:10.37,2013-06-14 15:43:00,
2013-06-14 10:48:00,71.1,15.8,27.19,North,0,0.0,0.0,12,0.00,CLR,OVC,0.00,WeatherDisplay:10.37,2013-06-14 15:48:00,
2013-06-14 10:53:00,71.4,16.1,27.19,North,0,0.0,0.0,12,0.00,CLR,OVC,0.00,WeatherDisplay:10.37,2013-06-14 15:53:00,
2013-06-14 10:58:00,71.8,14.4,27.19,North,0,0.0,0.0,11,0.00,CLR,OVC,0.00,WeatherDisplay:10.37,2013-06-14 15:58:00,
2013-06-14 11:03:00,72.5,14.9,27.19,North,0,0.0,0.0,11,0.00,CLR,OVC,0.00,WeatherDisplay:10.37,2013-06-14 16:03:00,
2013-06-14 11:08:00,72.9,15.2,27.19,North,0,0.0,0.0,11,0.00,CLR,OVC,0.00,WeatherDisplay:10.37,2013-06-14 16:08:00,
2013-06-14 11:13:00,73.2,10.9,27.19,North,0,0.0,0.0,9,0.00,CLR,OVC,0.00,WeatherDisplay:10.37,2013-06-14 16:13:00,
2013-06-14 11:18:00,73.9,8.8,27.19,North,0,0.0,0.0,8,0.00,CLR,OVC,0.00,WeatherDisplay:10.37,2013-06-14 16:18:00,
2013-06-14 11:23:00,75.2,9.8,27.19,North,0,0.0,0.0,8,0.00,CLR,OVC,0.00,WeatherDisplay:10.37,2013-06-14 16:23:00,
2013-06-14 11:28:00,76.1,10.4,27.19,North,0,0.0,0.0,8,0.00,CLR,OVC,0.00,WeatherDisplay:10.37,2013-06-14 16:28:00,
2013-06-14 11:33:00,76.6,10.9,27.19,North,0,0.0,0.0,8,0.00,CLR,OVC,0.00,WeatherDisplay:10.37,2013-06-14 16:33:00,
2013-06-14 11:38:00,76.8,11.0,27.19,North,0,0.0,0.0,8,0.00,CLR,OVC,0.00,WeatherDisplay:10.37,2013-06-14 16:38:00,
2013-06-14 11:43:00,77.5,11.5,27.19,North,0,0.0,0.0,8,0.00,CLR,OVC,0.00,WeatherDisplay:10.37,2013-06-14 16:43:00,
2013-06-14 11:48:00,77.4,11.4,27.19,North,0,0.0,0.0,8,0.00,CLR,OVC,0.00,WeatherDisplay:10.37,2013-06-14 16:48:00,
2013-06-14 11:53:00,77.7,11.7,27.19,North,0,0.0,0.0,8,0.00,CLR,OVC,0.00,WeatherDisplay:10.37,2013-06-14 16:53:00,
2013-06-14 11:58:00,77.5,11.5,27.19,North,0,0.0,0.0,8,0.00,CLR,OVC,0.00,WeatherDisplay:10.37,2013-06-14 16:58:00,
2013-06-14 12:03:00,77.2,11.3,27.19,North,0,0.0,0.0,8,0.00,CLR,OVC,0.00,WeatherDisplay:10.37,2013-06-14 17:03:00,
2013-06-14 12:08:00,77.7,11.7,27.19,North,0,0.0,0.0,8,0.00,CLR,OVC,0.00,WeatherDisplay:10.37,2013-06-14 17:08:00,
2013-06-14 12:13:00,78.8,9.5,27.19,North,0,0.0,0.0,7,0.00,CLR,OVC,0.00,WeatherDisplay:10.37,2013-06-14 17:13:00,
2013-06-14 12:18:00,79.5,10.0,27.19,North,0,0.0,0.0,7,0.00,CLR,OVC,0.00,WeatherDisplay:10.37,2013-06-14 17:18:00,
2013-06-14 12:23:00,79.9,10.2,27.19,North,0,0.0,0.0,7,0.00,CLR,OVC,0.00,WeatherDisplay:10.37,2013-06-14 17:23:00,
2013-06-14 12:28:00,79.5,10.0,27.19,North,0,0.0,0.0,7,0.00,CLR,OVC,0.00,WeatherDisplay:10.37,2013-06-14 17:28:00,
2013-06-14 12:33:00,79.3,9.9,27.19,North,0,0.0,0.0,7,0.00,CLR,OVC,0.00,WeatherDisplay:10.37,2013-06-14 17:33:00,
2013-06-14 12:38:00,79.2,9.7,27.19,North,0,0.0,0.0,7,0.00,CLR,OVC,0.00,WeatherDisplay:10.37,2013-06-14 17:38:00,
2013-06-14 12:43:00,78.4,12.2,27.19,North,0,0.0,0.0,8,0.00,CLR,OVC,0.00,WeatherDisplay:10.37,2013-06-14 17:43:00,
2013-06-14 12:48:00,77.9,11.8,27.19,North,0,0.0,0.0,8,0.00,CLR,OVC,0.00,WeatherDisplay:10.37,2013-06-14 17:48:00,
2013-06-14 12:53:00,77.7,11.7,27.19,North,0,0.0,0.0,8,0.00,CLR,OVC,0.00,WeatherDisplay:10.37,2013-06-14 17:53:00,
2013-06-14 12:58:00,77.7,11.7,27.19,North,0,0.0,0.0,8,0.00,CLR,OVC,0.00,WeatherDisplay:10.37,2013-06-14 17:58:00,
2013-06-14 13:03:00,77.5,11.5,27.19,North,0,0.0,0.0,8,0.00,CLR,OVC,0.00,WeatherDisplay:10.37,2013-06-14 18:03:00,
2013-06-14 13:08:00,77.4,11.4,27.19,North,0,0.0,0.0,8,0.00,CLR,OVC,0.00,WeatherDisplay:10.37,2013-06-14 18:08:00,
2013-06-14 13:13:00,77.0,11.1,27.19,North,0,0.0,0.0,8,0.00,CLR,OVC,0.00,WeatherDisplay:10.37,2013-06-14 18:13:00,
2013-06-14 13:18:00,77.4,11.4,27.19,North,0,0.0,0.0,8,0.00,CLR,OVC,0.00,WeatherDisplay:10.37,2013-06-14 18:18:00,
2013-06-14 13:23:00,77.7,11.7,27.19,North,0,0.0,0.0,8,0.00,CLR,OVC,0.00,WeatherDisplay:10.37,2013-06-14 18:23:00,
2013-06-14 13:28:00,77.4,11.4,27.19,North,0,0.0,0.0,8,0.00,CLR,OVC,0.00,WeatherDisplay:10.37,2013-06-14 18:28:00,
2013-06-14 13:33:00,77.4,11.4,27.19,North,0,0.0,0.0,8,0.00,CLR,OVC,0.00,WeatherDisplay:10.37,2013-06-14 18:33:00,
2013-06-14 13:38:00,77.4,11.4,27.19,North,0,0.0,0.0,8,0.00,CLR,OVC,0.00,WeatherDisplay:10.37,2013-06-14 18:38:00,
2013-06-14 13:43:00,77.2,11.3,27.19,North,0,0.0,0.0,8,0.00,CLR,OVC,0.00,WeatherDisplay:10.37,2013-06-14 18:43:00,
2013-06-14 13:48:00,77.7,11.7,27.19,North,0,0.0,0.0,8,0.00,CLR,OVC,0.00,WeatherDisplay:10.37,2013-06-14 18:48:00,
2013-06-14 13:53:00,78.6,12.3,27.19,North,0,0.0,0.0,8,0.00,CLR,OVC,0.00,WeatherDisplay:10.37,2013-06-14 18:53:00,
2013-06-14 13:58:00,79.2,9.7,27.19,North,0,0.0,0.0,7,0.00,CLR,OVC,0.00,WeatherDisplay:10.37,2013-06-14 18:58:00,
2013-06-14 14:03:00,78.6,12.3,27.19,North,0,0.0,0.0,8,0.00,CLR,OVC,0.00,WeatherDisplay:10.37,2013-06-14 19:03:00,
2013-06-14 14:08:00,78.3,12.1,27.19,North,0,0.0,0.0,8,0.00,CLR,OVC,0.00,WeatherDisplay:10.37,2013-06-14 19:08:00,
2013-06-14 14:13:00,78.8,9.5,27.19,North,0,0.0,0.0,7,0.00,CLR,OVC,0.00,WeatherDisplay:10.37,2013-06-14 19:13:00,
2013-06-14 14:18:00,79.7,10.1,27.19,North,0,0.0,0.0,7,0.00,CLR,OVC,0.00,WeatherDisplay:10.37,2013-06-14 19:18:00,
2013-06-14 14:23:00,80.2,10.5,27.19,North,0,0.0,0.0,7,0.00,CLR,OVC,0.00,WeatherDisplay:10.37,2013-06-14 19:23:00,
2013-06-14 14:28:00,80.6,10.8,27.19,North,0,0.0,0.0,7,0.00,CLR,OVC,0.00,WeatherDisplay:10.37,2013-06-14 19:28:00,
2013-06-14 14:33:00,80.6,10.8,27.19,North,0,0.0,0.0,7,0.00,CLR,OVC,0.00,WeatherDisplay:10.37,2013-06-14 19:33:00,
2013-06-14 14:38:00,80.4,10.6,27.19,North,0,0.0,0.0,7,0.00,CLR,OVC,0.00,WeatherDisplay:10.37,2013-06-14 19:38:00,
2013-06-14 14:43:00,80.4,10.6,27.19,North,0,0.0,0.0,7,0.00,CLR,OVC,0.00,WeatherDisplay:10.37,2013-06-14 19:43:00,
2013-06-14 14:48:00,80.8,10.9,27.19,North,0,0.0,0.0,7,0.00,CLR,OVC,0.00,WeatherDisplay:10.37,2013-06-14 19:48:00,
2013-06-14 14:53:00,80.6,10.8,27.19,North,0,0.0,0.0,7,0.00,CLR,OVC,0.00,WeatherDisplay:10.37,2013-06-14 19:53:00,
2013-06-14 14:58:00,80.4,10.6,27.19,North,0,0.0,0.0,7,0.00,CLR,OVC,0.00,WeatherDisplay:10.37,2013-06-14 19:58:00,
2013-06-14 15:03:00,80.2,10.5,27.19,North,0,0.0,0.0,7,0.00,CLR,OVC,0.00,WeatherDisplay:10.37,2013-06-14 20:03:00,
2013-06-14 15:08:00,80.2,10.5,27.19,North,0,0.0,0.0,7,0.00,CLR,OVC,0.00,WeatherDisplay:10.37,2013-06-14 20:08:00,
2013-06-14 15:13:00,80.1,10.4,27.19,North,0,0.0,0.0,7,0.00,CLR,OVC,0.00,WeatherDisplay:10.37,2013-06-14 20:13:00,
2013-06-14 15:18:00,79.9,10.2,27.19,North,0,0.0,0.0,7,0.00,CLR,OVC,0.00,WeatherDisplay:10.37,2013-06-14 20:18:00,
2013-06-14 15:23:00,79.7,10.1,27.19,North,0,0.0,0.0,7,0.00,CLR,OVC,0.00,WeatherDisplay:10.37,2013-06-14 20:23:00,
2013-06-14 15:28:00,79.5,10.0,27.19,North,0,0.0,0.0,7,0.00,CLR,OVC,0.00,WeatherDisplay:10.37,2013-06-14 20:28:00,
2013-06-14 15:33:00,79.3,9.9,27.19,North,0,0.0,0.0,7,0.00,CLR,OVC,0.00,WeatherDisplay:10.37,2013-06-14 20:33:00,
2013-06-14 15:38:00,79.5,10.0,27.19,North,0,0.0,0.0,7,0.00,CLR,OVC,0.00,WeatherDisplay:10.37,2013-06-14 20:38:00,
2013-06-14 15:43:00,79.9,10.2,27.19,North,0,0.0,0.0,7,0.00,CLR,OVC,0.00,WeatherDisplay:10.37,2013-06-14 20:43:00,
2013-06-14 15:48:00,80.6,10.8,27.19,North,0,0.0,0.0,7,0.00,CLR,OVC,0.00,WeatherDisplay:10.37,2013-06-14 20:48:00,
2013-06-14 15:53:00,81.3,11.3,27.19,North,0,0.0,0.0,7,0.00,CLR,OVC,0.00,WeatherDisplay:10.37,2013-06-14 20:53:00,
2013-06-14 15:58:00,81.9,11.7,27.19,North,0,0.0,0.0,7,0.00,CLR,OVC,0.00,WeatherDisplay:10.37,2013-06-14 20:58:00,
2013-06-14 16:04:00,82.4,8.6,27.19,North,0,0.0,0.0,6,0.00,CLR,OVC,0.00,WeatherDisplay:10.37,2013-06-14 21:04:00,
2013-06-14 16:09:00,82.8,8.9,27.19,North,0,0.0,0.0,6,0.00,CLR,OVC,0.00,WeatherDisplay:10.37,2013-06-14 21:09:00,
2013-06-14 16:14:00,83.3,9.3,27.19,North,0,0.0,0.0,6,0.00,CLR,OVC,0.00,WeatherDisplay:10.37,2013-06-14 21:14:00,
2013-06-14 16:19:00,83.7,9.5,27.19,North,0,0.0,0.0,6,0.00,CLR,OVC,0.00,WeatherDisplay:10.37,2013-06-14 21:19:00,
2013-06-14 16:24:00,84.0,9.8,27.19,North,0,0.0,0.0,6,0.00,CLR,OVC,0.00,WeatherDisplay:10.37,2013-06-14 21:24:00,
2013-06-14 16:29:00,84.0,9.8,27.19,North,0,0.0,0.0,6,0.00,CLR,OVC,0.00,WeatherDisplay:10.37,2013-06-14 21:29:00,
2013-06-14 16:34:00,84.2,9.9,27.19,North,0,0.0,0.0,6,0.00,CLR,OVC,0.00,WeatherDisplay:10.37,2013-06-14 21:34:00,
2013-06-14 16:39:00,84.0,9.8,27.19,North,0,0.0,0.0,6,0.00,CLR,OVC,0.00,WeatherDisplay:10.37,2013-06-14 21:39:00,
2013-06-14 16:44:00,83.1,9.2,27.19,North,0,0.0,0.0,6,0.00,CLR,OVC,0.00,WeatherDisplay:10.37,2013-06-14 21:44:00,
2013-06-14 16:49:00,82.0,11.8,27.19,North,0,0.0,0.0,7,0.00,CLR,OVC,0.00,WeatherDisplay:10.37,2013-06-14 21:49:00,
2013-06-14 16:54:00,81.3,11.3,27.19,North,0,0.0,0.0,7,0.00,CLR,OVC,0.00,WeatherDisplay:10.37,2013-06-14 21:54:00,
2013-06-14 16:59:00,81.3,11.3,27.19,North,0,0.0,0.0,7,0.00,CLR,OVC,0.00,WeatherDisplay:10.37,2013-06-14 21:59:00,
2013-06-14 17:04:00,82.2,12.0,27.19,North,0,0.0,0.0,7,0.00,CLR,OVC,0.00,WeatherDisplay:10.37,2013-06-14 22:04:00,
2013-06-14 17:09:00,82.8,8.9,27.19,North,0,0.0,0.0,6,0.00,CLR,OVC,0.00,WeatherDisplay:10.37,2013-06-14 22:09:00,
2013-06-14 17:14:00,82.9,9.0,27.19,North,0,0.0,0.0,6,0.00,CLR,OVC,0.00,WeatherDisplay:10.37,2013-06-14 22:14:00,
2013-06-14 17:19:00,82.4,8.6,27.19,North,0,0.0,0.0,6,0.00,CLR,OVC,0.00,WeatherDisplay:10.37,2013-06-14 22:19:00,
2013-06-14 17:24:00,81.9,11.7,27.19,North,0,0.0,0.0,7,0.00,CLR,OVC,0.00,WeatherDisplay:10.37,2013-06-14 22:24:00,
2013-06-14 17:29:00,81.5,11.4,27.19,North,0,0.0,0.0,7,0.00,CLR,OVC,0.00,WeatherDisplay:10.37,2013-06-14 22:29:00,
2013-06-14 17:34:00,81.3,11.3,27.19,North,0,0.0,0.0,7,0.00,CLR,OVC,0.00,WeatherDisplay:10.37,2013-06-14 22:34:00,
2013-06-14 17:39:00,81.1,11.2,27.19,North,0,0.0,0.0,7,0.00,CLR,OVC,0.00,WeatherDisplay:10.37,2013-06-14 22:39:00,
2013-06-14 17:44:00,80.8,10.9,27.19,North,0,0.0,0.0,7,0.00,CLR,OVC,0.00,WeatherDisplay:10.37,2013-06-14 22:44:00,
2013-06-14 17:49:00,80.4,10.6,27.19,North,0,0.0,0.0,7,0.00,CLR,OVC,0.00,WeatherDisplay:10.37,2013-06-14 22:49:00,
2013-06-14 17:54:00,79.9,10.2,27.19,North,0,0.0,0.0,7,0.00,CLR,OVC,0.00,WeatherDisplay:10.37,2013-06-14 22:54:00,
2013-06-14 17:59:00,79.5,10.0,27.19,North,0,0.0,0.0,7,0.00,CLR,OVC,0.00,WeatherDisplay:10.37,2013-06-14 22:59:00,
2013-06-14 18:04:00,79.3,9.9,27.19,North,0,0.0,0.0,7,0.00,CLR,OVC,0.00,WeatherDisplay:10.37,2013-06-14 23:04:00,
2013-06-14 18:09:00,79.2,9.7,27.19,North,0,0.0,0.0,7,0.00,CLR,OVC,0.00,WeatherDisplay:10.37,2013-06-14 23:09:00,
2013-06-14 18:14:00,78.8,9.5,27.19,North,0,0.0,0.0,7,0.00,CLR,OVC,0.00,WeatherDisplay:10.37,2013-06-14 23:14:00,
2013-06-14 18:19:00,78.4,12.2,27.19,North,0,0.0,0.0,8,0.00,CLR,OVC,0.00,WeatherDisplay:10.37,2013-06-14 23:19:00,
2013-06-14 18:24:00,78.3,12.1,27.19,North,0,0.0,0.0,8,0.00,CLR,OVC,0.00,WeatherDisplay:10.37,2013-06-14 23:24:00,
2013-06-14 18:29:00,77.7,11.7,27.19,North,0,0.0,0.0,8,0.00,CLR,OVC,0.00,WeatherDisplay:10.37,2013-06-14 23:29:00,
2013-06-14 18:34:00,77.5,11.5,27.19,North,0,0.0,0.0,8,0.00,CLR,OVC,0.00,WeatherDisplay:10.37,2013-06-14 23:34:00,
2013-06-14 18:39:00,77.4,11.4,27.19,North,0,0.0,0.0,8,0.00,CLR,OVC,0.00,WeatherDisplay:10.37,2013-06-14 23:39:00,
2013-06-14 18:44:00,77.4,11.4,27.19,North,0,0.0,0.0,8,0.00,CLR,OVC,0.00,WeatherDisplay:10.37,2013-06-14 23:44:00,
2013-06-14 18:49:00,77.0,11.1,27.19,North,0,0.0,0.0,8,0.00,CLR,OVC,0.00,WeatherDisplay:10.37,2013-06-14 23:49:00,
2013-06-14 18:54:00,76.1,10.4,27.19,North,0,0.0,0.0,8,0.00,CLR,OVC,0.00,WeatherDisplay:10.37,2013-06-14 23:54:00,
2013-06-14 18:59:00,75.2,9.8,27.19,North,0,0.0,0.0,8,0.00,CLR,OVC,0.00,WeatherDisplay:10.37,2013-06-14 23:59:00,
2013-06-14 19:04:00,75.0,9.6,27.19,North,0,0.0,0.0,8,0.00,CLR,OVC,0.00,WeatherDisplay:10.37,2013-06-15 00:04:00,
2013-06-14 19:09:00,74.5,9.2,27.19,North,0,0.0,0.0,8,0.00,CLR,OVC,0.00,WeatherDisplay:10.37,2013-06-15 00:09:00,
2013-06-14 19:14:00,74.5,9.2,27.19,North,0,0.0,0.0,8,0.00,CLR,OVC,0.00,WeatherDisplay:10.37,2013-06-15 00:14:00,
2013-06-14 19:19:00,74.1,9.0,27.19,North,0,0.0,0.0,8,0.00,CLR,OVC,0.00,WeatherDisplay:10.37,2013-06-15 00:19:00,
2013-06-14 19:24:00,73.8,8.7,27.19,North,0,0.0,0.0,8,0.00,CLR,OVC,0.00,WeatherDisplay:10.37,2013-06-15 00:24:00,
2013-06-14 19:29:00,73.6,8.6,27.19,North,0,0.0,0.0,8,0.00,CLR,OVC,0.00,WeatherDisplay:10.37,2013-06-15 00:29:00,
2013-06-14 19:34:00,73.4,8.4,27.19,North,0,0.0,0.0,8,0.00,CLR,OVC,0.00,WeatherDisplay:10.37,2013-06-15 00:34:00,
2013-06-14 19:39:00,73.0,15.4,27.19,North,0,0.0,0.0,11,0.00,CLR,OVC,0.00,WeatherDisplay:10.37,2013-06-15 00:39:00,
2013-06-14 19:44:00,72.9,10.7,27.19,North,0,0.0,0.0,9,0.00,CLR,OVC,0.00,WeatherDisplay:10.37,2013-06-15 00:44:00,
2013-06-14 19:49:00,72.9,15.2,27.19,North,0,0.0,0.0,11,0.00,CLR,OVC,0.00,WeatherDisplay:10.37,2013-06-15 00:49:00,
2013-06-14 19:54:00,72.7,15.1,27.19,North,0,0.0,0.0,11,0.00,CLR,OVC,0.00,WeatherDisplay:10.37,2013-06-15 00:54:00,
2013-06-14 19:59:00,72.5,14.9,27.19,North,0,0.0,0.0,11,0.00,CLR,OVC,0.00,WeatherDisplay:10.37,2013-06-15 00:59:00,
2013-06-14 20:04:00,72.5,14.9,27.19,North,0,0.0,0.0,11,0.00,CLR,OVC,0.00,WeatherDisplay:10.37,2013-06-15 01:04:00,
2013-06-14 20:09:00,72.5,14.9,27.19,North,0,0.0,0.0,11,0.00,CLR,OVC,0.00,WeatherDisplay:10.37,2013-06-15 01:09:00,
2013-06-14 20:14:00,72.3,14.8,27.19,North,0,0.0,0.0,11,0.00,CLR,OVC,0.00,WeatherDisplay:10.37,2013-06-15 01:14:00,
2013-06-14 20:19:00,72.3,14.8,27.19,North,0,0.0,0.0,11,0.00,CLR,OVC,0.00,WeatherDisplay:10.37,2013-06-15 01:19:00,
2013-06-14 20:24:00,72.1,14.7,27.19,North,0,0.0,0.0,11,0.00,CLR,OVC,0.00,WeatherDisplay:10.37,2013-06-15 01:24:00,
2013-06-14 20:29:00,72.0,14.5,27.19,North,0,0.0,0.0,11,0.00,CLR,OVC,0.00,WeatherDisplay:10.37,2013-06-15 01:29:00,
2013-06-14 20:34:00,72.0,14.5,27.19,North,0,0.0,0.0,11,0.00,CLR,OVC,0.00,WeatherDisplay:10.37,2013-06-15 01:34:00,
2013-06-14 20:39:00,71.8,14.4,27.19,North,0,0.0,0.0,11,0.00,CLR,OVC,0.00,WeatherDisplay:10.37,2013-06-15 01:39:00,
2013-06-14 20:44:00,71.6,14.2,27.19,North,0,0.0,0.0,11,0.00,CLR,OVC,0.00,WeatherDisplay:10.37,2013-06-15 01:44:00,
2013-06-14 20:49:00,71.6,14.2,27.19,North,0,0.0,0.0,11,0.00,CLR,OVC,0.00,WeatherDisplay:10.37,2013-06-15 01:49:00,
2013-06-14 20:54:00,71.4,16.1,27.19,North,0,0.0,0.0,12,0.00,CLR,OVC,0.00,WeatherDisplay:10.37,2013-06-15 01:54:00,
2013-06-14 20:59:00,71.2,16.0,27.19,North,0,0.0,0.0,12,0.00,CLR,OVC,0.00,WeatherDisplay:10.37,2013-06-15 01:59:00,
2013-06-14 21:04:00,71.1,15.8,27.19,North,0,0.0,0.0,12,0.00,CLR,OVC,0.00,WeatherDisplay:10.37,2013-06-15 02:04:00,
2013-06-14 21:09:00,71.1,15.8,27.19,North,0,0.0,0.0,12,0.00,CLR,OVC,0.00,WeatherDisplay:10.37,2013-06-15 02:09:00,
2013-06-14 21:14:00,71.1,15.8,27.19,North,0,0.0,0.0,12,0.00,CLR,OVC,0.00,WeatherDisplay:10.37,2013-06-15 02:14:00,
2013-06-14 21:19:00,71.2,16.0,27.19,North,0,0.0,0.0,12,0.00,CLR,OVC,0.00,WeatherDisplay:10.37,2013-06-15 02:19:00,
2013-06-14 21:24:00,71.4,16.1,27.19,North,0,0.0,0.0,12,0.00,CLR,OVC,0.00,WeatherDisplay:10.37,2013-06-15 02:24:00,
2013-06-14 21:29:00,71.6,14.2,27.19,North,0,0.0,0.0,11,0.00,CLR,OVC,0.00,WeatherDisplay:10.37,2013-06-15 02:29:00,
2013-06-14 21:34:00,71.8,14.4,27.19,North,0,0.0,0.0,11,0.00,CLR,OVC,0.00,WeatherDisplay:10.37,2013-06-15 02:34:00,
2013-06-14 21:39:00,72.0,14.5,27.19,North,0,0.0,0.0,11,0.00,CLR,OVC,0.00,WeatherDisplay:10.37,2013-06-15 02:39:00,
2013-06-14 21:44:00,72.0,14.5,27.19,North,0,0.0,0.0,11,0.00,CLR,OVC,0.00,WeatherDisplay:10.37,2013-06-15 02:44:00,
2013-06-14 21:49:00,72.1,14.7,27.19,North,0,0.0,0.0,11,0.00,CLR,OVC,0.00,WeatherDisplay:10.37,2013-06-15 02:49:00,
2013-06-14 21:54:00,72.1,14.7,27.19,North,0,0.0,0.0,11,0.00,CLR,OVC,0.00,WeatherDisplay:10.37,2013-06-15 02:54:00,
2013-06-14 21:59:00,72.1,14.7,27.19,North,0,0.0,0.0,11,0.00,CLR,OVC,0.00,WeatherDisplay:10.37,2013-06-15 02:59:00,
2013-06-14 22:04:00,72.1,14.7,27.19,North,0,0.0,0.0,11,0.00,CLR,OVC,0.00,WeatherDisplay:10.37,2013-06-15 03:04:00,
2013-06-14 22:09:00,72.1,14.7,27.19,North,0,0.0,0.0,11,0.00,CLR,OVC,0.00,WeatherDisplay:10.37,2013-06-15 03:09:00,
2013-06-14 22:14:00,72.0,14.5,27.19,North,0,0.0,0.0,11,0.00,CLR,OVC,0.00,WeatherDisplay:10.37,2013-06-15 03:14:00,
2013-06-14 22:19:00,72.0,14.5,27.19,North,0,0.0,0.0,11,0.00,CLR,OVC,0.00,WeatherDisplay:10.37,2013-06-15 03:19:00,
2013-06-14 22:24:00,72.0,14.5,27.19,North,0,0.0,0.0,11,0.00,CLR,OVC,0.00,WeatherDisplay:10.37,2013-06-15 03:24:00,
2013-06-14 22:29:00,71.8,14.4,27.19,North,0,0.0,0.0,11,0.00,CLR,OVC,0.00,WeatherDisplay:10.37,2013-06-15 03:29:00,
2013-06-14 22:34:00,71.8,14.4,27.19,North,0,0.0,0.0,11,0.00,CLR,OVC,0.00,WeatherDisplay:10.37,2013-06-15 03:34:00,
2013-06-14 22:39:00,71.6,14.2,27.19,North,0,0.0,0.0,11,0.00,CLR,OVC,0.00,WeatherDisplay:10.37,2013-06-15 03:39:00,
2013-06-14 22:44:00,71.4,16.1,27.19,North,0,0.0,0.0,12,0.00,CLR,OVC,0.00,WeatherDisplay:10.37,2013-06-15 03:44:00,
2013-06-14 22:49:00,71.2,16.0,27.19,North,0,0.0,0.0,12,0.00,CLR,OVC,0.00,WeatherDisplay:10.37,2013-06-15 03:49:00,
2013-06-14 22:54:00,71.1,15.8,27.19,North,0,0.0,0.0,12,0.00,CLR,OVC,0.00,WeatherDisplay:10.37,2013-06-15 03:54:00,
2013-06-14 22:59:00,71.1,15.8,27.19,North,0,0.0,0.0,12,0.00,CLR,OVC,0.00,WeatherDisplay:10.37,2013-06-15 03:59:00,
2013-06-14 23:01:00,71.1,15.8,27.19,North,0,0.0,0.0,12,0.00,CLR,OVC,0.00,WeatherDisplay:10.37,2013-06-15 04:01:00,
2013-06-14 23:02:00,71.1,19.4,27.19,North,0,0.0,0.0,14,0.00,CLR,OVC,0.00,WeatherDisplay:10.37,2013-06-15 04:02:00,
2013-06-14 23:07:00,70.9,19.3,27.19,North,0,0.0,0.0,14,0.00,CLR,OVC,0.00,WeatherDisplay:10.37,2013-06-15 04:07:00,
2013-06-14 23:12:00,70.9,19.3,27.19,North,0,0.0,0.0,14,0.00,CLR,OVC,0.00,WeatherDisplay:10.37,2013-06-15 04:12:00,
2013-06-14 23:17:00,70.5,19.0,27.19,North,0,0.0,0.0,14,0.00,CLR,OVC,0.00,WeatherDisplay:10.37,2013-06-15 04:17:00,
2013-06-14 23:22:00,70.2,18.7,27.19,North,0,0.0,0.0,14,0.00,CLR,OVC,0.00,WeatherDisplay:10.37,2013-06-15 04:22:00,
2013-06-14 23:27:00,69.8,18.4,27.19,North,0,0.0,0.0,14,0.00,CLR,OVC,0.00,WeatherDisplay:10.37,2013-06-15 04:27:00,
2013-06-14 23:32:00,69.6,22.8,27.19,North,0,0.0,0.0,17,0.00,CLR,OVC,0.00,WeatherDisplay:10.37,2013-06-15 04:32:00,
2013-06-14 23:37:00,69.4,22.7,27.19,North,0,0.0,0.0,17,0.00,CLR,OVC,0.00,WeatherDisplay:10.37,2013-06-15 04:37:00,
2013-06-14 23:42:00,69.3,26.4,27.19,North,0,0.0,0.0,20,0.00,CLR,OVC,0.00,WeatherDisplay:10.37,2013-06-15 04:42:00,
2013-06-14 23:47:00,69.1,26.3,27.19,North,0,0.0,0.0,20,0.00,CLR,OVC,0.00,WeatherDisplay:10.37,2013-06-15 04:47:00,
2013-06-14 23:52:00,69.1,26.3,27.19,North,0,0.0,0.0,20,0.00,CLR,OVC,0.00,WeatherDisplay:10.37,2013-06-15 04:52:00,
2013-06-14 23:57:00,68.9,26.1,27.19,North,0,0.0,0.0,20,0.00,CLR,OVC,0.00,WeatherDisplay:10.37,2013-06-15 04:57:00,